Dover AFB, DE

6:47 AM EDT on May 28, 2018 (GMT -0400)
Dover Air Force Base

Weather History for KDOV - January, 2014

Change the Weather History Date:

Monday, January 20, 2014

  Actual Average Record
Temperature  
Mean Temperature 43 °F -  
Max Temperature 52 °F 41 °F 64 °F (1951)
Min Temperature 32 °F 25 °F 5 °F (1984)
Degree Days  
Heating Degree Days 22    
Moisture  
Dew Point 29 °F    
Average Humidity 64    
Maximum Humidity 83    
Minimum Humidity 39    
Precipitation  
Precipitation 0.00 in - - ()
Sea Level Pressure  
Sea Level Pressure 29.74 in    
Wind  
Wind Speed 10 mph (WSW)    
Max Wind Speed 14 mph    
Max Gust Speed 18 mph    
Visibility 10 miles    
Events      
Averages and records for this station are not official NWS values.
T = Trace of Precipitation, MM = Missing Value Source: NWS Daily Summary

Daily Weather History Graph

Daily Weather History Graph

Search for Another Location

Airport or City:

Astronomy

Jan. 20, 2014 Rise Set
Actual Time 7:17 AM EST 5:08 PM EST
Civil Twilight 6:48 AM EST 5:37 PM EST
Nautical Twilight 6:15 AM EST 6:10 PM EST
Astronomical Twilight 5:43 AM EST 6:42 PM EST
Moon 9:39 PM EST (1/20) 9:17 AM EST (1/20)
Length of Visible Light 10h 49m
Length of Day
9h 51m
Waning Gibbous, 83% of the Moon is Illuminated
Jan 20
Waning Gibbous
Jan 24
Last Quarter
Jan 30
New
Feb 6
First Quarter
Feb 14
Full

Hourly Weather History & Observations

Time (EST) Temp. Windchill Dew Point Humidity Pressure Visibility Wind Dir Wind Speed Gust Speed Precip Events Conditions
12:58 AM 38.3 °F 30.5 °F 28.8 °F 69% 29.73 in 10.0 mi SSW 12.7 mph - N/A   Clear
1:58 AM 37.6 °F 30.0 °F 28.8 °F 70% 29.72 in 10.0 mi South 11.5 mph - N/A   Clear
2:58 AM 36.7 °F 28.9 °F 29.5 °F 75% 29.72 in 10.0 mi SSW 11.5 mph - N/A   Clear
3:58 AM 35.4 °F 27.8 °F 29.7 °F 80% 29.72 in 10.0 mi South 10.4 mph - N/A   Clear
4:58 AM 35.1 °F 27.4 °F 30.4 °F 83% 29.70 in 10.0 mi SSW 10.4 mph - N/A   Clear
5:58 AM 35.4 °F 28.4 °F 30.6 °F 82% 29.71 in 10.0 mi South 9.2 mph - N/A   Clear
6:58 AM 36.5 °F 29.2 °F 30.0 °F 77% 29.69 in 10.0 mi SSW 10.4 mph - N/A   Scattered Clouds
7:58 AM 37.4 °F 31.4 °F 29.8 °F 74% 29.68 in 10.0 mi SSW 8.1 mph - N/A   Clear
8:58 AM 37.8 °F 33.3 °F 30.0 °F 74% 29.70 in 10.0 mi SW 5.8 mph - N/A   Partly Cloudy
9:58 AM 39.6 °F 34.7 °F 30.6 °F 70% 29.70 in 10.0 mi SW 6.9 mph - N/A   Partly Cloudy
10:58 AM 43.3 °F 38.1 °F 30.0 °F 59% 29.69 in 10.0 mi WSW 9.2 mph - N/A   Clear
11:58 AM 48.2 °F - 29.1 °F 48% 29.67 in 10.0 mi WSW 13.8 mph - N/A   Clear
12:58 PM 51.8 °F - 28.9 °F 41% 29.64 in 10.0 mi West 11.5 mph 18.4 mph N/A   Clear
1:58 PM 52.0 °F - 27.9 °F 39% 29.66 in 10.0 mi West 11.5 mph - N/A   Partly Cloudy
2:58 PM 49.5 °F - 28.4 °F 44% 29.66 in 10.0 mi WSW 8.1 mph - N/A   Partly Cloudy
3:58 PM 50.5 °F - 28.2 °F 42% 29.70 in 10.0 mi SW 6.9 mph - N/A   Clear
4:58 PM 48.4 °F - 28.6 °F 46% 29.72 in 10.0 mi SSW 4.6 mph - N/A   Clear
5:58 PM 45.3 °F 43.0 °F 27.9 °F 51% 29.77 in 10.0 mi West 4.6 mph - N/A   Clear
6:58 PM 43.7 °F 36.9 °F 29.8 °F 58% 29.80 in 10.0 mi WNW 13.8 mph - N/A   Clear
7:58 PM 43.2 °F 37.0 °F 29.3 °F 58% 29.83 in 10.0 mi WNW 11.5 mph - N/A   Clear
8:58 PM 40.5 °F 36.5 °F 28.9 °F 64% 29.85 in 10.0 mi West 5.8 mph - N/A   Clear
9:58 PM 38.7 °F 35.2 °F 28.8 °F 68% 29.88 in 10.0 mi West 4.6 mph - N/A   Clear
10:58 PM 34.5 °F - 27.9 °F 77% 29.89 in 10.0 mi North 2.3 mph - N/A   Clear
11:58 PM 32.9 °F 27.5 °F 28.2 °F 83% 29.89 in 10.0 mi NNW 5.8 mph - N/A   Clear